CW3917 Weather Reports


Display with metric or nautical units.
time (UTC)temp
F
wind
direction
speed
MPH
gust
MPH
rain 1hr
in
rain 24hr
in
rain mn
in
humidity
%
barometer
mb
20260508002447 73 182 2.0 8.0 0.00 0.00 0.00 58 1012.7
20260508001943 75 277 3.0 6.0 0.00 0.00 0.00 55 1012.8
20260508001440 75 276 2.0 6.0 0.00 0.00 0.00 55 1013.1
20260508000937 76 80 4.0 8.0 0.00 0.00 0.00 55 1012.9
20260508000434 76 160 1.0 3.0 0.00 0.00 0.00 54 1012.8
20260507235930 76 324 1.0 6.0 0.00 0.00 0.00 54 1012.9
20260507235427 76 68 2.0 6.0 0.00 0.00 0.00 54 1012.9
20260507234924 76 197 3.0 10.0 0.00 0.00 0.00 54 1012.8
20260507234420 77 261 2.0 3.0 0.00 0.00 0.00 53 1012.9
20260507233917 76 190 4.0 11.0 0.00 0.00 0.00 53 1012.9
20260507233414 76 101 2.0 8.0 0.00 0.00 0.00 54 1012.8
20260507232913 77 55 4.0 10.0 0.00 0.00 0.00 53 1013.0
20260507232409 77 226 5.0 9.0 0.00 0.00 0.00 52 1013.0
20260507231906 76 191 2.0 8.0 0.00 0.00 0.00 52 1013.1
20260507231402 75 26 2.0 10.0 0.00 0.00 0.00 54 1013.1
20260507230859 77 205 4.0 10.0 0.00 0.00 0.00 51 1012.9
20260507230356 77 214 4.0 9.0 0.00 0.00 0.00 51 1012.9
20260507225856 77 234 2.0 7.0 0.00 0.00 0.00 52 1012.9
20260507225353 77 66 3.0 7.0 0.00 0.00 0.00 51 1013.1
20260507224848 77 283 2.0 10.0 0.00 0.00 0.00 51 1012.9
20260507224345 76 269 1.0 9.0 0.00 0.00 0.00 53 1013.1
20260507223841 76 187 4.0 10.0 0.00 0.00 0.00 54 1013.2
20260507223337 77 211 2.0 8.0 0.00 0.00 0.00 51 1013.2
20260507222835 77 215 1.0 6.0 0.00 0.00 0.00 51 1013.1
20260507222331 77 58 3.0 11.0 0.00 0.00 0.00 51 1013.3
20260507221828 78 21 2.0 6.0 0.00 0.00 0.00 50 1013.0
20260507221325 78 326 6.0 8.0 0.00 0.00 0.00 50 1013.2
20260507220821 78 284 0.0 6.0 0.00 0.00 0.00 49 1013.4
20260507220319 75 152 3.0 8.0 0.00 0.00 0.00 51 1013.4
20260507215815 78 44 2.0 8.0 0.00 0.00 0.00 50 1013.4
20260507215313 77 354 2.0 7.0 0.00 0.00 0.00 50 1013.6
20260507214810 78 83 4.0 7.0 0.00 0.00 0.00 49 1013.5
20260507214307 77 15 3.0 6.0 0.00 0.00 0.00 51 1013.6
20260507213802 77 19 4.0 8.0 0.00 0.00 0.00 51 1013.7
20260507213259 77 219 10.0 10.0 0.00 0.00 0.00 51 1013.9
20260507212756 77 81 1.0 9.0 0.00 0.00 0.00 51 1013.7
20260507212252 77 124 5.0 7.0 0.00 0.00 0.00 51 1014.0
20260507211749 77 354 1.0 10.0 0.00 0.00 0.00 51 1014.0
20260507211245 77 154 2.0 7.0 0.00 0.00 0.00 51 1013.7
20260507210742 77 189 2.0 8.0 0.00 0.00 0.00 52 1014.0
20260507210239 76 211 6.0 8.0 0.00 0.00 0.00 52 1013.9
20260507205736 77 165 6.0 11.0 0.00 0.00 0.00 54 1014.0
20260507205232 76 229 7.0 9.0 0.00 0.00 0.00 54 1014.0
20260507204728 76 206 2.0 9.0 0.00 0.00 0.00 55 1014.2
20260507204227 76 74 6.0 11.0 0.00 0.00 0.00 54 1014.2
20260507203724 76 198 5.0 8.0 0.00 0.00 0.00 54 1014.0
20260507203221 76 198 8.0 11.0 0.00 0.00 0.00 55 1014.2
20260507202717 75 63 2.0 6.0 0.00 0.00 0.00 55 1014.1
20260507202214 75 205 6.0 11.0 0.00 0.00 0.00 57 1014.1
20260507201708 76 109 2.0 8.0 0.00 0.00 0.00 55 1014.3
20260507201206 75 343 3.0 10.0 0.00 0.00 0.00 56 1014.2
20260507200702 77 188 3.0 14.0 0.00 0.00 0.00 55 1014.6
20260507200158 75 194 4.0 8.0 0.00 0.00 0.00 55 1014.3
20260507195655 76 76 0.0 10.0 0.00 0.00 0.00 55 1014.5
20260507195152 77 45 4.0 7.0 0.00 0.00 0.00 52 1014.5
20260507194649 76 190 4.0 9.0 0.00 0.00 0.00 52 1014.4
20260507194144 76 223 8.0 9.0 0.00 0.00 0.00 51 1014.5
20260507193641 75 234 3.0 6.0 0.00 0.00 0.00 53 1014.6
20260507193139 75 74 4.0 7.0 0.00 0.00 0.00 54 1014.8
20260507192634 76 92 2.0 7.0 0.00 0.00 0.00 52 1014.7
20260507192131 75 38 2.0 7.0 0.00 0.00 0.00 53 1014.8
20260507191627 74 113 4.0 6.0 0.00 0.00 0.00 55 1014.8
20260507191124 75 53 1.0 6.0 0.00 0.00 0.00 54 1014.8
20260507190621 74 200 3.0 6.0 0.00 0.00 0.00 55 1015.0
20260507190120 73 164 1.0 7.0 0.00 0.00 0.00 54 1015.0
20260507185618 74 209 1.0 2.0 0.00 0.00 0.00 55 1015.1
20260507185114 74 202 7.0 9.0 0.00 0.00 0.00 54 1015.2
20260507184613 72 184 3.0 4.0 0.00 0.00 0.00 56 1015.2
20260507184110 73 281 6.0 9.0 0.00 0.00 0.00 57 1015.5
20260507183606 72 58 2.0 6.0 0.00 0.00 0.00 57 1015.2
20260507183103 72 20 2.0 4.0 0.00 0.00 0.00 56 1015.4
20260507182559 71 274 1.0 6.0 0.00 0.00 0.00 58 1015.3
20260507182055 72 80 2.0 4.0 0.00 0.00 0.00 56 1015.4
20260507181553 72 183 3.0 6.0 0.00 0.00 0.00 56 1015.5
20260507181049 71 307 1.0 6.0 0.00 0.00 0.00 57 1015.4
20260507180545 72 220 1.0 2.0 0.00 0.00 0.00 59 1015.5
20260507180042 71 70 0.0 4.0 0.00 0.00 0.00 60 1015.4
20260507175538 69 2 0.0 4.0 0.00 0.00 0.00 63 1015.5
20260507175037 70 338 4.0 7.0 0.00 0.00 0.00 63 1015.4
20260507174533 69 207 3.0 8.0 0.00 0.00 0.00 65 1015.7
20260507174031 69 313 0.0 2.0 0.00 0.00 0.00 63 1015.4
20260507173527 69 212 6.0 8.0 0.00 0.00 0.00 63 1015.5
20260507173025 69 218 2.0 6.0 0.00 0.00 0.00 63 1015.5
20260507172520 69 164 1.0 2.0 0.00 0.00 0.00 64 1015.5
20260507172017 68 301 5.0 7.0 0.00 0.00 0.00 65 1015.5
20260507171513 68 267 2.0 7.0 0.00 0.00 0.00 67 1015.5
20260507171011 67 72 4.0 6.0 0.00 0.00 0.00 67 1015.5
20260507170507 67 214 2.0 3.0 0.00 0.00 0.00 66 1015.6
20260507170004 68 2 1.0 7.0 0.00 0.00 0.00 67 1015.6
20260507165500 67 168 1.0 4.0 0.00 0.00 0.00 67 1015.6
20260507164956 65 30 2.0 4.0 0.00 0.00 0.00 71 1015.6
20260507164453 66 68 3.0 6.0 0.00 0.00 0.00 70 1015.6
20260507163949 66 42 2.0 3.0 0.00 0.00 0.00 70 1015.7
20260507163447 66 12 0.0 2.0 0.00 0.00 0.00 69 1015.5
20260507162944 64 351 1.0 3.0 0.00 0.00 0.00 71 1015.9
20260507162439 64 224 0.0 2.0 0.00 0.00 0.00 72 1015.6
20260507161937 65 333 1.0 6.0 0.00 0.00 0.00 71 1015.8
20260507161432 64 227 1.0 4.0 0.00 0.00 0.00 71 1015.6
20260507160929 63 206 2.0 2.0 0.00 0.00 0.00 73 1015.7
20260507160425 63 356 1.0 3.0 0.00 0.00 0.00 74 1015.7
20260507155921 63 27 0.0 2.0 0.00 0.00 0.00 74 1015.7
20260507155417 63 213 3.0 3.0 0.00 0.00 0.00 73 1015.6
20260507154915 62 270 1.0 3.0 0.00 0.00 0.00 78 1015.7
20260507154411 62 227 4.0 4.0 0.00 0.00 0.00 77 1015.7
20260507153909 63 305 2.0 2.0 0.00 0.00 0.00 75 1015.8
20260507153405 61 321 0.0 3.0 0.00 0.00 0.00 78 1015.8
20260507152902 61 218 3.0 3.0 0.00 0.00 0.00 78 1016.1
20260507152358 60 56 0.0 3.0 0.00 0.00 0.00 79 1015.9
20260507151854 60 214 1.0 3.0 0.00 0.00 0.00 79 1015.6
20260507151351 59 59 2.0 4.0 0.00 0.00 0.00 81 1015.8
20260507150847 60 6 0.0 3.0 0.00 0.00 0.00 79 1015.7
20260507150344 61 357 0.0 2.0 0.00 0.00 0.00 77 1015.7
20260507145840 61 27 0.0 1.0 0.00 0.00 0.00 77 1015.7
20260507145337 60 296 1.0 2.0 0.00 0.00 0.00 79 1015.7
20260507144834 60 146 0.0 2.0 0.00 0.00 0.00 80 1015.8
20260507144331 60 15 0.0 1.0 0.00 0.00 0.00 80 1015.8
20260507143827 60 283 0.0 2.0 0.00 0.00 0.00 79 1015.6
20260507143325 59 196 1.0 2.0 0.00 0.00 0.00 79 1015.7
20260507142821 60 9 1.0 1.0 0.00 0.00 0.00 79 1015.6
20260507142317 61 0 1.0 2.0 0.00 0.00 0.00 77 1015.5
20260507141814 60 38 0.0 1.0 0.00 0.00 0.00 79 1015.3
20260507141311 61 31 1.0 1.0 0.00 0.00 0.00 76 1015.3
20260507140807 60 3 0.0 0.0 0.00 0.00 0.00 77 1015.5
20260507140304 59 2 0.0 0.0 0.00 0.00 0.00 79 1015.5
20260507135802 61 25 1.0 1.0 0.00 0.00 0.00 75 1015.2
20260507135259 60 10 0.0 1.0 0.00 0.00 0.00 77 1015.5
20260507134755 57 3 0.0 0.0 0.00 0.00 0.00 81 1015.4
20260507134252 56 7 0.0 0.0 0.00 0.00 0.00 83 1015.1
20260507133747 56 10 0.0 1.0 0.00 0.00 0.00 84 1015.1
20260507133244 55 2 0.0 2.0 0.00 0.00 0.00 86 1015.0
20260507132742 54 15 1.0 1.0 0.00 0.00 0.00 88 1015.0
20260507132239 54 334 0.0 1.0 0.00 0.00 0.00 88 1014.8
20260507131735 54 274 1.0 1.0 0.00 0.00 0.00 87 1014.8
20260507131233 54 337 0.0 1.0 0.00 0.00 0.00 87 1014.9
20260507130729 54 339 0.0 0.0 0.00 0.00 0.00 87 1014.8
20260507130227 54 346 0.0 0.0 0.00 0.00 0.00 86 1014.8
20260507125725 54 354 0.0 0.0 0.00 0.00 0.00 86 1014.8
20260507125223 54 312 0.0 0.0 0.00 0.00 0.00 87 1014.8
20260507124719 54 352 0.0 1.0 0.00 0.00 0.00 89 1014.6
20260507124216 53 1 1.0 1.0 0.00 0.00 0.00 89 1014.8
20260507123715 53 359 0.0 0.0 0.00 0.00 0.00 89 1014.7
20260507123212 54 12 0.0 1.0 0.00 0.00 0.00 88 1014.8
20260507122707 54 335 0.0 0.0 0.00 0.00 0.00 88 1014.8
20260507122203 53 0 0.0 1.0 0.00 0.00 0.00 89 1014.6
20260507121659 54 1 0.0 0.0 0.00 0.00 0.00 88 1014.7
20260507121155 54 349 0.0 0.0 0.00 0.00 0.00 88 1014.9
20260507120651 54 352 0.0 0.0 0.00 0.00 0.00 88 1014.8
20260507120148 54 15 0.0 1.0 0.00 0.00 0.00 87 1015.0
20260507115644 54 350 0.0 0.0 0.00 0.00 0.00 86 1014.9
20260507115140 55 344 1.0 1.0 0.00 0.00 0.00 84 1014.9
20260507114636 56 308 0.0 2.0 0.00 0.00 0.00 84 1015.0
20260507114133 55 272 1.0 2.0 0.00 0.00 0.00 86 1014.9
20260507113631 55 346 0.0 1.0 0.00 0.00 0.00 85 1014.8
20260507113127 56 274 0.0 2.0 0.00 0.00 0.00 84 1014.6
20260507112625 56 10 0.0 3.0 0.00 0.00 0.00 84 1015.0
20260507112122 56 45 2.0 3.0 0.00 0.00 0.00 84 1015.0
20260507111619 56 213 2.0 2.0 0.00 0.00 0.00 85 1015.0
20260507111116 55 355 1.0 1.0 0.00 0.00 0.00 86 1015.0
20260507110612 56 18 0.0 1.0 0.00 0.00 0.00 85 1014.9
20260507110109 55 23 1.0 2.0 0.00 0.00 0.00 86 1015.0
20260507105606 55 68 1.0 3.0 0.00 0.00 0.00 86 1014.9
20260507105101 55 356 0.0 1.0 0.00 0.00 0.00 85 1015.1
20260507104559 55 15 1.0 2.0 0.00 0.00 0.00 86 1015.0
20260507104056 55 53 1.0 2.0 0.00 0.00 0.00 85 1015.0
20260507103552 55 13 0.0 0.0 0.00 0.00 0.00 86 1015.2
20260507103049 55 7 0.0 1.0 0.00 0.00 0.00 86 1015.3
20260507102545 55 1 0.0 0.0 0.00 0.00 0.00 86 1015.2
20260507102041 55 18 0.0 0.0 0.00 0.00 0.00 86 1015.3
20260507101537 55 343 0.0 1.0 0.00 0.00 0.00 86 1015.0
20260507101033 55 14 0.0 2.0 0.00 0.00 0.00 87 1015.2
20260507100531 54 12 0.0 1.0 0.00 0.00 0.00 86 1015.3
20260507100029 53 19 1.0 2.0 0.00 0.00 0.00 87 1015.3
20260507095526 53 331 0.0 1.0 0.00 0.00 0.00 86 1015.3
20260507095023 53 331 1.0 1.0 0.00 0.00 0.00 86 1015.3
20260507094519 53 23 1.0 1.0 0.00 0.00 0.00 87 1015.3
20260507094016 52 358 0.0 1.0 0.00 0.00 0.00 88 1015.4
20260507093513 52 8 0.0 1.0 0.00 0.00 0.00 88 1015.5
20260507093012 53 351 0.0 0.0 0.00 0.00 0.00 88 1015.7
20260507092508 53 342 0.0 0.0 0.00 0.00 0.00 89 1015.7
20260507092005 51 345 0.0 0.0 0.00 0.00 0.00 88 1015.8
20260507091502 53 1 0.0 0.0 0.00 0.00 0.00 87 1015.9
20260507090957 53 354 0.0 0.0 0.00 0.00 0.00 87 1015.8
20260507090453 53 359 0.0 0.0 0.00 0.00 0.00 87 1015.8
20260507085950 53 357 0.0 0.0 0.00 0.00 0.00 87 1015.9
20260507085447 53 357 0.0 0.0 0.00 0.00 0.00 87 1016.0
20260507084944 53 354 0.0 0.0 0.00 0.00 0.00 87 1015.9
20260507084441 54 352 0.0 0.0 0.00 0.00 0.00 88 1016.2
20260507083938 53 346 0.0 0.0 0.00 0.00 0.00 88 1016.1
20260507083434 53 339 0.0 0.0 0.00 0.00 0.00 89 1016.0
20260507082931 53 345 0.0 0.0 0.00 0.00 0.00 89 1016.2
20260507082427 53 351 0.0 0.0 0.00 0.00 0.00 89 1016.1
20260507081924 54 346 0.0 0.0 0.00 0.00 0.00 87 1016.3
20260507081420 54 344 0.0 1.0 0.00 0.00 0.00 88 1016.2
20260507080917 54 345 0.0 0.0 0.00 0.00 0.00 88 1016.1
20260507080413 54 357 0.0 0.0 0.00 0.00 0.00 88 1016.2
20260507075908 54 351 0.0 1.0 0.00 0.00 0.00 88 1016.5
20260507075404 54 6 0.0 1.0 0.00 0.00 0.00 88 1016.2
20260507074901 54 356 0.0 0.0 0.00 0.00 0.00 88 1016.2
20260507074358 54 309 0.0 1.0 0.00 0.00 0.00 87 1016.2
20260507073855 54 356 0.0 0.0 0.00 0.00 0.00 86 1016.3
20260507073352 55 358 0.0 0.0 0.00 0.00 0.00 84 1016.3
20260507072849 55 340 0.0 0.0 0.00 0.00 0.00 84 1016.5
20260507072346 55 310 0.0 1.0 0.00 0.00 0.00 86 1016.3
20260507071844 54 353 0.0 1.0 0.00 0.00 0.00 86 1016.2
20260507071341 54 17 1.0 1.0 0.00 0.00 0.00 86 1016.3
20260507070837 54 356 0.0 1.0 0.00 0.00 0.00 86 1016.5
20260507070335 54 19 0.0 1.0 0.00 0.00 0.00 86 1016.6
20260507065831 54 357 0.0 0.0 0.00 0.00 0.00 86 1016.4
20260507065328 54 344 0.0 0.0 0.00 0.00 0.00 86 1016.3
20260507064825 54 342 0.0 0.0 0.00 0.00 0.00 86 1016.5
20260507064324 55 9 1.0 1.0 0.00 0.00 0.00 85 1016.5
20260507063821 55 343 0.0 0.0 0.00 0.00 0.00 85 1016.6
20260507063318 55 337 0.0 0.0 0.00 0.00 0.00 85 1016.6
20260507062815 55 1 0.0 1.0 0.00 0.00 0.00 83 1016.8
20260507062312 56 334 0.0 1.0 0.00 0.00 0.00 83 1016.7
20260507061810 55 330 0.0 1.0 0.00 0.00 0.00 83 1016.6
20260507061307 56 357 0.0 0.0 0.00 0.00 0.00 82 1016.6
20260507060805 56 327 0.0 0.0 0.00 0.00 0.00 82 1016.6
20260507060302 56 352 0.0 0.0 0.00 0.00 0.00 82 1016.6
20260507055758 56 349 0.0 0.0 0.00 0.00 0.00 81 1016.6
20260507055254 57 351 0.0 0.0 0.00 0.00 0.00 80 1016.6
20260507054750 57 356 0.0 0.0 0.00 0.00 0.00 79 1016.6
20260507054247 58 346 0.0 0.0 0.00 0.00 0.00 78 1016.6
20260507053744 58 334 0.0 0.0 0.00 0.00 0.00 78 1016.7
20260507053242 58 334 0.0 0.0 0.00 0.00 0.00 78 1016.7
20260507052741 58 342 0.0 0.0 0.00 0.00 0.00 77 1016.5
20260507052236 59 240 2.0 2.0 0.00 0.00 0.00 76 1016.4
20260507051735 59 351 0.0 0.0 0.00 0.00 0.00 75 1016.5
20260507051231 59 288 2.0 2.0 0.00 0.00 0.00 75 1016.6
20260507050728 59 213 1.0 2.0 0.00 0.00 0.00 75 1016.4
20260507050225 59 237 2.0 2.0 0.00 0.00 0.00 75 1016.4
20260507045722 59 245 2.0 2.0 0.00 0.00 0.00 74 1016.2
20260507045218 60 186 2.0 2.0 0.00 0.00 0.00 74 1016.2
20260507044715 60 239 2.0 4.0 0.00 0.00 0.00 73 1016.4
20260507044212 60 224 3.0 4.0 0.00 0.00 0.00 73 1016.4
20260507043708 60 268 1.0 3.0 0.00 0.00 0.00 73 1016.3
20260507043205 60 235 3.0 3.0 0.00 0.00 0.00 73 1016.5
20260507042701 60 224 2.0 4.0 0.00 0.00 0.00 73 1016.4
20260507042156 60 255 2.0 4.0 0.00 0.00 0.00 73 1016.3
20260507041654 61 248 1.0 3.0 0.00 0.00 0.00 73 1016.4
20260507041150 61 5 1.0 3.0 0.00 0.00 0.00 72 1016.3
20260507040647 61 324 1.0 3.0 0.00 0.00 0.00 72 1016.3
20260507040143 61 196 2.0 3.0 0.00 0.00 0.00 72 1016.4
20260507035639 61 285 2.0 3.0 0.00 0.00 0.00 71 1016.1
20260507035135 62 2 1.0 4.0 0.00 0.00 0.00 70 1016.1
20260507034633 62 226 2.0 3.0 0.00 0.00 0.00 69 1016.0
20260507034130 62 184 3.0 4.0 0.00 0.00 0.00 69 1016.0
20260507033628 62 189 3.0 3.0 0.00 0.00 0.00 68 1015.8
20260507033125 62 233 1.0 3.0 0.00 0.00 0.00 68 1015.8
20260507032623 62 340 0.0 2.0 0.00 0.00 0.00 68 1015.9
20260507032118 63 230 3.0 7.0 0.00 0.00 0.00 67 1015.9
20260507031615 63 204 4.0 6.0 0.00 0.00 0.00 68 1015.9
20260507031112 63 220 2.0 3.0 0.00 0.00 0.00 71 1015.6
20260507030609 63 321 1.0 2.0 0.00 0.00 0.00 69 1015.8
20260507030107 63 345 0.0 1.0 0.00 0.00 0.00 68 1015.6
20260507025603 64 181 1.0 3.0 0.00 0.00 0.00 68 1015.7
20260507025100 64 168 0.0 3.0 0.00 0.00 0.00 67 1015.7
20260507024559 64 316 1.0 3.0 0.00 0.00 0.00 67 1015.6
20260507024055 64 10 0.0 3.0 0.00 0.00 0.00 66 1015.6
20260507023551 64 213 3.0 3.0 0.00 0.00 0.00 66 1015.4
20260507023048 64 287 1.0 4.0 0.00 0.00 0.00 66 1015.4
20260507022545 65 191 3.0 3.0 0.00 0.00 0.00 65 1015.0
20260507022040 65 3 0.0 3.0 0.00 0.00 0.00 65 1015.4
20260507021537 65 342 1.0 3.0 0.00 0.00 0.00 64 1015.3
20260507021033 66 130 2.0 4.0 0.00 0.00 0.00 64 1015.2
20260507020531 66 14 2.0 6.0 0.00 0.00 0.00 63 1015.1
20260507020027 66 19 2.0 4.0 0.00 0.00 0.00 62 1015.1
20260507015526 67 52 1.0 3.0 0.00 0.00 0.00 61 1015.2
20260507015023 67 352 0.0 6.0 0.00 0.00 0.00 61 1015.1
20260507014519 68 161 3.0 6.0 0.00 0.00 0.00 61 1015.1
20260507014015 68 22 1.0 3.0 0.00 0.00 0.00 60 1015.0
20260507013512 69 252 3.0 7.0 0.00 0.00 0.00 59 1015.0
20260507013009 69 183 4.0 4.0 0.00 0.00 0.00 58 1015.1
20260507012506 69 232 1.0 6.0 0.00 0.00 0.00 57 1015.0
20260507012003 70 337 1.0 7.0 0.00 0.00 0.00 56 1014.9
20260507011500 71 247 2.0 4.0 0.00 0.00 0.00 55 1014.9
20260507010955 71 346 2.0 8.0 0.00 0.00 0.00 54 1014.7
20260507010450 72 12 4.0 8.0 0.00 0.00 0.00 54 1014.7
20260507005947 72 9 3.0 6.0 0.00 0.00 0.00 52 1014.7
20260507005445 72 20 1.0 8.0 0.00 0.00 0.00 53 1014.7
20260507004941 71 150 4.0 4.0 0.00 0.00 0.00 52 1014.7
20260507004437 73 203 6.0 9.0 0.00 0.00 0.00 53 1014.7
20260507003935 72 22 2.0 8.0 0.00 0.00 0.00 51 1014.8
20260507003430 71 188 6.0 9.0 0.00 0.00 0.00 52 1014.8
20260507002926 72 201 4.0 13.0 0.00 0.00 0.00 51 1014.7